STARLINK-32755, 62842

Orbit data source: Space-Track

STARLINK-32755, 62842 is a payload satellite owned by SpaceX/Seattle (US) in LEO that was launched on Mon, 27 Jan 2025 UTC via an FALCON 9 launch vehicle from the Air Force Eastern Test Range (AFETR). Payload-class satellites include a variety of spacecraft equipped with specific instruments for various scientific and technological missions. These include communications satellites like Starlink; space stations such as the ISS; scientific satellites like the Hubble; Earth observation satellites from companies like Planet Labs, Umbra, and HawkEye 360; GPS; miniature CubeSats for education and research; and military/defense satellites.

Loading next visibility...
Identifier
62842, 2025-019P
Orbit
LEO
Last TLE update
1 day ago
Origin
Manufacturer
SpaceX/Seattle
Mission
Operational Commercial Communications
Bus & Motor
STARLINK V2M, Unknown motor
Mass
730 kg wet, ~700 kg dry
Launch date (UTC)
2025-01-27 (3 months ago)
Launch vehicle
FALCON 9
Launch site
Air Force Eastern Test Range (AFETR)
Object type
Payload
Rocket body
Debris
Shape & HBR
Box + 2 Pan, 29 m
Radar Cross Section
33.884 m², Large (>1 m²)

Expand to show TLE details & history

TLE from 1 day ago
0 STARLINK-32755
1 62842U 25019P   25128.01422117  .00002558  00000-0  68468-4 0  9991
2 62842  43.0022  11.6665 0001659 287.2331  72.8344 15.40707423 15543
Epoch: 2025-05-08T00:20Z
Definitive object data (Epoch: 2025-05-08T00:20:28.709Z)
Latitude
0.00001°
Longitude
140.45608°
Altitude
443.461 km
Speed
7.648 km/s
True Right ascension
00h 46m 39s
True Declination
0° 00' 00"
Sunlit
Object was in daylight at TLE epoch
Visualization TLE readout
Latitude
-4.38127°
Longitude
128.67695°
Altitude
443.853 km
Speed
7.648 km/s
Apparent Right ascension
00h 50m 16s
Apparent Declination
-22° 05' 53"
Sunlit
Object is in daylight
Visualization observer readout
Local Sidereal Time
14:01:15
Azimuth
45.483° ENE
Elevation
-66.666°
Doppler factor
1
Orbital elements
Apogee altitude
447.108 km
Perigee altitude
444.844 km
Semi-major axis
6,824.113 km
Eccentricity
0.0001659
Inclination
43.0022°
RAAN
11.6665°
Arg. of periapsis
287.2331°
True anomaly
72.85257°
Mean anomaly
72.8344°
Eccentric anomaly
72.84348°
Mean motion
3.85012 °/min
BSTAR
0.000068468
Orbital period
93.5 mins
Loading maneuver chart data...
Loading SW <> Apogee altitude chart data...
Loading historical data...
Loading historical data...
Loading historical data...
Loading historical data...
Loading historical data...
Loading historical data...
Loading historical data...

STARLINK-32755 Visibility forecast

Observer location: undefined°, undefined°

Span
Click to sort rows by Start time (UTC) header in descending order
Start Az.
Max El. time (UTC)
Max El. Az.
Max El.
End time (UTC)
End Az.
5 mins2025-05-09 18:32:31.031Z195.876° SSW2025-05-09 18:34:31.031Z157.582° S20.866°2025-05-09 18:37:31.031Z95.046° ESE
5 mins2025-05-09 20:10:31.031Z254.027° W2025-05-09 20:12:31.031Z274.245° WNW44.338°2025-05-09 20:15:31.031Z71.057° E
4 mins2025-05-09 21:49:31.031Z299.96° NW2025-05-09 21:50:31.031Z331.338° NNW35.367°2025-05-09 21:53:31.031Z71.734° E
5 mins2025-05-09 23:27:31.031Z290.558° WNW2025-05-09 23:29:31.031Z87.007° E43.899°2025-05-09 23:32:31.031Z106.334° ESE
4 mins2025-05-10 01:05:31.031Z250.414° W2025-05-10 01:07:31.031Z200.569° SSW21.102°2025-05-10 01:09:31.031Z162.865° S
|